User: anonymous   Login
Location: Unspecified
(0.0000°N, 0.0000°E)
Time: 05:46:34
(UTC+00:00)
Language:

Cubesat XI-IV - Orbit

View from above orbital plane
View from above orbital plane
View from above satellite
View from above satellite

Ground track
Ground track

The orbit data is extracted from the following two-line orbital elements,

1 27848U 03031J   18350.47376072  .00000033  00000-0  35111-4 0  9990
2 27848  98.6943 356.8884 0009147 210.0139 150.0515 14.21749149801962
Epoch (UTC): 16 December 2018 11:22:12
Eccentricity: 0.0009147
inclination: 98.6943°
perigee height: 813 km
apogee height: 826 km
right ascension of ascending node: 356.8884°
argument of perigee: 210.0139°
revolutions per day: 14.21749149
mean anomaly at epoch: 150.0515°
orbit number at epoch: 80196

The dashed part of the orbit path shows where the satellite is in the earth's shadow,  

DLR